Regional Weather Roundup
Issued by NWS

Home | Current Version | Previous Version | Graphics & Text | Print | Product List | Glossary On
Versions: 1 2 3 4 5 6 7 8 9 10 11 12 13 14 15 16 17 18 19 20 21 22 23 24 25 26 27 28 29 30 31 32 33 34 35 36 37 38 39 40 41 42 43 44 45 46 47 48 49 50
000
ASUS43 KDMX 311703
RWRIA

WEATHER ROUNDUP FOR IOWA
NATIONAL WEATHER SERVICE DES MOINES IA
1200 PM CDT WED AUG 31 2016

NOTE: "FAIR" INDICATES FEW OR NO CLOUDS BELOW 12,000 FEET WITH NO
SIGNIFICANT WEATHER AND/OR OBSTRUCTIONS TO VISIBILITY.

* - THESE STATIONS ARE NOT NWS STATIONS...THUS NOT UNDER NWS
QUALITY CONTROL.  THEY ALSO DO NOT REPORT WEATHER SUCH
AS PRECIPITATION OR FOG.

IAZ001>003-012>014-020>022-031>034-043>046-311800-
   NORTHWEST IOWA

CITY           SKY/WX    TMP DP  RH WIND       PRES   REMARKS
CARROLL *      SUNNY     75  59  57 NE7       30.21S
CHEROKEE *     SUNNY     74  57  55 NE5       30.23F
DENISON *      SUNNY     75  59  57 NE9       30.19F
LE MARS *      SUNNY     77  57  50 E6        30.24S
ORANGE CITY *  SUNNY     75  57  53 E5        30.24S
SHELDON *      SUNNY     75  59  57 VRB3      30.22F
SIOUX CITY     SUNNY     77  59  53 NE6       30.22F
SPENCER        SUNNY     77  55  46 NE8       30.23F
STORM LAKE *   SUNNY     73  57  56 VRB6      30.24S
$$

IAZ055>058-069>071-079>083-090>094-311800-
   SOUTHWEST IOWA

CITY           SKY/WX    TMP DP  RH WIND       PRES   REMARKS
ATLANTIC *     SUNNY     75  59  57 E9        30.19S
AUDUBON *      SUNNY     75  61  60 E8        30.21S
CLARINDA *       N/A     75  64  69 MISG        N/A
COUNCIL BLFS * SUNNY     75  61  60 E8        30.20S
CRESTON *      MOSUNNY   73  61  64 NE10      30.20S
HARLAN  *      SUNNY     75  61  60 NE5G12    30.23S
LAMONI         MOSUNNY   72  65  78 N8        30.17S
RED OAK *      MOSUNNY   77  61  57 VRB6G13   30.19S
SHENANDOAH *   PTSUNNY   77  61  57 E5        30.19S
$$

IAZ047>049-059>061-072>074-084-311800-
   CENTRAL IOWA

CITY           SKY/WX    TMP DP  RH WIND       PRES   REMARKS
AMES           SUNNY     77  62  59 N7        30.18F
ANKENY *         N/A    N/A N/A N/A MISG        N/A
BOONE *        SUNNY     75  59  57 NE7       30.19S
CHARITON *       N/A     75  64  69 N7G14     30.16F
DES MOINES     MOSUNNY   78  58  49 NE8       30.16F
GRINNELL*      SUNNY     77  58  51 N8        30.17F
KNOXVILLE *    MOSUNNY   75  61  60 NE7G15    30.14F
MARSHALLTOWN   SUNNY     75  60  59 NE8       30.17F
NEWTON *       SUNNY     75  59  57 NE8G14    30.16F
PERRY *          N/A     76  60  58 NE8       30.19S
$$

IAZ004>006-015-016-023>025-035-036-311800-
   NORTH CENTRAL IOWA

CITY           SKY/WX    TMP DP  RH WIND       PRES   REMARKS
ALGONA *       SUNNY     73  57  56 NE7       30.22F
ESTHERVILLE    SUNNY     74  59  59 NE5       30.22F
FORT DODGE *   SUNNY     73  59  60 NE6       30.22S
MASON CITY     SUNNY     75  56  51 N10       30.22S
FOREST CITY *    N/A     72  55  56 N8        30.21S
WEBSTER CITY * SUNNY     75  59  57 N10       30.18S
IOWA FALLS *     N/A     75  57  54 NE7       30.20S
$$

IAZ007>011-017>019-026>030-037>042-050>054-066-311800-
   NORTHEAST IOWA

CITY           SKY/WX    TMP DP  RH WIND       PRES   REMARKS
CEDAR RAPIDS   MOSUNNY   77  61  57 N10       30.14S
CHARLES CITY * SUNNY     73  54  49 N10       30.20S
CLINTON *      PTSUNNY   75  67  76 N12       30.13S
DECORAH *      SUNNY     72  52  49 VRB7G17   30.17F
DUBUQUE        SUNNY     72  62  71 NE8       30.15F
MONTICELLO *   SUNNY     75  57  53 VRB7G14   30.14F
OELWEIN *      SUNNY     73  57  56 N10       30.18S
WATERLOO       SUNNY     75  56  51 NE9       30.16F
$$

IAZ064-065-067-068-078-311800-
   EAST CENTRAL IOWA

CITY           SKY/WX    TMP DP  RH WIND       PRES   REMARKS
DAVENPORT      MOSUNNY   76  66  71 N9        30.12F
IOWA CITY      MOSUNNY   77  60  55 N9        30.15R
MT. PLEASANT * PTSUNNY   77  69  76 N8        30.12F
QUAD CITIES    CLOUDY    77  66  68 N6        30.10F
$$

IAZ062-063-075>077-085>089-095>099-311800-
   SOUTHEAST IOWA

CITY           SKY/WX    TMP DP  RH WIND       PRES   REMARKS
BURLINGTON     PTSUNNY   76  68  76 N8        30.10F
FAIRFIELD *    PTSUNNY   75  64  69 NE9       30.13S
FORT MADISON * CLOUDY    75  68  78 NW6       30.12S
KEOKUK *       PTSUNNY   75  68  78 N8        30.10S
OSKALOOSA *      N/A     74  65  73 N7        30.15F
OTTUMWA        MOSUNNY   76  63  64 N10       30.13F
WASHINGTON *   PTSUNNY   75  64  69 N10       30.14S
$$

ABBREVIATIONS USED IN REMARKS
   TC - TEMPERATURES IN CELSIUS
  WCI - WIND CHILL INDEX
   HX - HEAT INDEX
  VSB - VISIBILITY
$$





USA.gov is the U.S. government's official web portal to all federal, state and local government web resources and services.